Simultaneous Nadir Overpasses (SNOs) Predictions

Prediction of SNOs between AURA and NPP Satellite Orbit:

Table of predicted SNOs for the next 14.0 days since TLE Epoch: 5/28/2016
Index Date (AURA) Time (AURA) Lat,Lon (AURA) SZA (AURA ) Date (NPP) Time (NPP) Lat,Lon (NPP) SZA (NPP ) Distance(km) Time Diff (sec)
1 05/29/2016 18:19:12 -79.06, -20.88 108.47 05/29/2016 18:18:13 -79.06, -20.90 108.42 0.29 59
2 05/29/2016 19:08:31 79.34, 148.48 71.14 05/29/2016 19:08:50 79.33, 148.38 71.15 2.18 19
3 06/01/2016 10:35:36 -79.23, 96.02 109.05 06/01/2016 10:35:02 -79.24, 96.13 109.05 2.41 34
4 06/01/2016 11:24:55 79.50, -94.58 70.56 06/01/2016 11:25:39 79.50, -94.54 70.52 0.69 44
5 06/04/2016 02:52:04 -79.27,-147.84 109.41 06/04/2016 02:51:56 -79.27,-147.87 109.40 0.49 8
6 06/04/2016 03:41:24 79.49, 21.29 70.26 06/04/2016 03:42:34 79.49, 21.18 70.23 2.24 70
7 06/06/2016 18:19:09 79.13, 159.52 70.54 06/06/2016 18:18:09 79.14, 159.66 70.56 3.08 60
8 06/06/2016 19:08:31 -79.34, -31.51 109.77 06/06/2016 19:08:49 -79.33, -31.62 109.76 2.65 18
9 06/09/2016 10:35:35 79.23, -83.96 70.19 06/09/2016 10:35:01 79.24, -83.89 70.20 1.63 34




NCC Satellite Simultaneous Nadir Overpasses (SNOs) Prediction Service
